7 * 24
多渠道服务支持
STARLINK-38174(NORAD编号100104)是美国太空探索技术公司(SpaceX)星链第三代(Gen3)通信卫星,隶属SpaceX规划的10万颗级第三代星链星座序列。该卫星单器重约2000公斤,运行于350公里级甚低地球轨道,配备升级星间激光链路,单星下行通信容量达1Tbps,支持最高275GHz频段通信,相比前代卫星容量提升10倍,可服务地面偏远区域、海洋作业等场景的高速互联网接入需求,当前处于在轨稳定运行状态,是星链网络扩展全球覆盖、支撑高带宽通信场景的重要组成节点。
美国
(US)
| 数据来源 | 国际轨道数据 |
| 星历时间: | 2026-09-14T07:08:18+0800 6小时前 查看轨道信息 |
| 半长轴: | 6721.927km |
| 偏心率: | 0.000185 |
| 轨道倾角: | 97.283° |
| 近地点辐角 | 89.047° |
| 升交点赤经 | 274.977° |
| 平近点角 | 271.101° |
| 近地点: | 342.546km |
| 远地点: | 345.034km |
| 周期: | 91.411分钟 |
| 每日圈数: | 15.752957 |